Location: Recife
(8.0585°S, 34.8848°W)
Time: 20:54:18
(UTC-03:00)

S-56A Canister/Altair - Pass Details

Date: 14 April 2026
Orbit: 633 x 2484 km, 38.9° (Epoch: 16 May)

Event Time Altitude Azimuth Distance (km) Brightness Sun altitude
Rises 15:53:36 0° 281° (W) 4,785 13.2 19.6°
Reaches altitude 10° 15:58:11 10° 266° (W) 3,422 12.6 18.5°
Maximum altitude 16:03:54 20° 222° (SW) 2,272 10.5 17.1°
Drops below altitude 10° 16:08:23 10° 175° (S) 2,582 10.1 16.0°
Sets 16:11:17 0° 157° (SSE) 3,310 10.4 15.3°
